NOAA 16 DEB

Satellite information

Favourite Embed

Satellite Type and Status

DEBRISIN ORBIT

Key statistics

Satellite NOAA 16 DEB at a glance.

Uptime

9054

Days in orbit

Revolutions

≈ 14.5

Per day

Orbit

SSO

Sun Synchronous Orbit

Inclination

99.1

Latest

Satellite identification and parameters

Extended collection of information and parameters for NOAA 16 DEB.

Object identification

Identified? True

Debris? True

Object name: NOAA 16 DEB

International designator: 2000-055RP

Object number (NORAD): 42371

Object ID (CCSDS): 42371

Country: UNITED STATES OF AMERICA (US)

Current information (Y/N): Y

RCS size: SMALL

Orbital parameters

Period: 99.211 minutes

Inclination: 99.0766 deg

SMA: 7099.042 km

Apoapsis: 748.55 km

Periapsis: 693.264 km

RAAN: 84.1388 deg

Eccentricy: 0.0038939

Argument of periapsis: 36.9387 deg

Mean anomaly: 323.4475 deg

Mean motion: 14.51453436 rev/day

Mean motion (dot): 0.0000783 rev/day2

B* drag term: 0.0019528 1/REarth

Two-line elements (TLE)

Creation date: July 5, 2025, 6:46 a.m.

Reference frame: TEME

Reference center: EARTH

Epoch: July 4, 2025, 10:58 p.m. UTC

TLE line 0: 0 NOAA 16 DEB

TLE line 1: 1 42371U 00055RP 25185.95753599 .00007830 00000-0 19528-2 0 9995

TLE line 2: 2 42371 99.0766 84.1388 0038939 36.9387 323.4475 14.51453436492038

Live tracking on map

Real-time ground track for satellite NOAA 16 DEB.

In-orbit conjunctions

A list of the most updated potential collisions computed for object NOAA 16 DEB.

Target Orbit TCA Probability of collision Miss distance Type
ESSA 1 (OT-3) SSO 2025-05-28 19:17:28 0.0001198616 488.0 (m) PAYLOAD
METEOR 2-5 DEB LEO 2024-11-11 03:50:50 0.0002203329 307.0 (m) DEBRIS

Associated space launch

The NOAA K, L and M POES satellites begin the fifth generation of improved environmental monitoring in support of NOAA missions. The instrument payload has significant improvements and additions/deletions. The instrument changes have effected the spacecraft subsystems and data formats.

NOAA 16 DEB was lifted into orbit during the mission ‘Titan II SLV | NOAA 16’, on board a Titan II SLV space rocket.

The launch took place on Sept. 21, 2000, 10:22 a.m. from Space Launch Complex 4W.

For more information about the launch, click the button.

Launch to space Titan II SLV | NOAA 16
Titan II SLV | NOAA 16

Agency: N/A

Status: Launch Successful

Launch date: Sept. 21, 2000, 10:22 a.m. UTC

Rocket: Titan II SLV

Launch pad: Space Launch Complex 4W

Location: Vandenberg SFB, CA, USA

...

Latest news about this satellite

There are no fresh news available about this satellite. Check back as we update our databases every day.


Newsletter sign-up

Weekly statistics, charts and insights to help you stay on top of the space industry.